www.pogodaiklimat.ru

Погода и климат >> Архив погоды >> Монголия >> Чойбалсан


ПОГОДА в Чойбалсане

  • Прогноз погоды в Чойбалсане
  • Монитор погоды в Чойбалсане

АРХИВ ПОГОДЫ в Чойбалсане

Время (UTC), дата Ветер
(напр.,м/с)
 
Видим.   Явления Облачность Т
(С)
Тd
(С)
f
(%)
Тe
(С)
Тes
(С)
Комфортность P
(гПа)
Po
(гПа)
Тmin
(С)
Tmax
(С)
R
(мм)
R24
(мм)
S
(см)
03 13.09 СЗ 4 10 км 1/1 1000 м
[Cu hum]
+14.8 +2.3 43 +14 +20 1014.1 928.0
06 13.09 З 4 10 км 3/3 1000 м
[Cu hum]
+17.5 +2.7 37 +17 +21 1012.2 926.9
09 13.09 З 4 10 км 3/0
[Ci]
+17.9 +1.8 34 +18 +19 1011.3 926.3
12 13.09 З 4
{10}
10 км 6/3 1000 м
[Sc Ac trans Ci]
+13.1 +4.5 56 +12 +12 1014.1 927.5 +18.8
15 13.09 З 3 10 км 3/0
[Ac trans]
+9.8 +4.4 69 +8 +8 1015.4 927.7
18 13.09 З 3 10 км ясно +7.5 +5.5 87 +5 +5 1016.1 927.7
21 13.09 ЮЗ 4 10 км 5/0
[Ac trans]
+7.2 +10.4 100 +3 +3 1015.3 926.9
00 14.09 ЮЗ 3 10 км 3/0
[Ac lent]
+10.3 +6.1 75 +8 +10 1013.8 926.3 +5.8
03 14.09 ЮЗ 5 10 км 3/0
[Ac trans]
+18.3 +3.0 36 +18 +22 1009.8 925.0
06 14.09 ЮЗ 8 10 км 6/4 1000 м
[Cu med, cong Ci fib]
+22.7 +1.1 24 +22 +23 комфорт 1004.8 921.7
09 14.09 З 9
{18}
10 км пыльный позёмок 6/4 1000 м
[Cu med, cong Cc]
+23.3 -0.2 21 +22 +22 комфорт 1001.9 919.2
12 14.09 СВ 1
{12}
10 км {метель} 8/0
[Ac As]
+15.6 +4.6 48 +16 +16 1005.2 920.0 +24.2
15 14.09 СЗ 1 10 км 9/0
[Cs]
+12.0 +6.1 67 +12 +12 1007.4 921.0
18 14.09 С 4 10 км 9/0
[Ac lent Cs]
+10.0 +4.4 68 +8 +8 1010.1 922.9
21 14.09 С 5 10 км 9/6 600 м
[Sc Ac trans]
+7.2 -0.6 58 +4 +4 1014.2 925.8
00 15.09 С 4
{12}
10 км слаб. дождь 9/9 600 м
[Sc]
+4.8 -0.2 70 +1 +1 1019.0 929.4 +4.6 0.0
03 15.09 С 6 10 км {дождь} 3/0
[Ac trans]
+8.8 -11.8 22 +6 +9 1019.1 930.7
06 15.09 СЗ 5 10 км {дождь} ясно +11.2 -10.3 21 +9 +14 1017.7 930.2
09 15.09 З 5 10 км ясно +12.3 -10.0 20 +11 +11 1016.9 929.8
12 15.09 З 2 10 км ясно +7.6 -6.5 36 +6 +6 1018.9 930.3 +12.8 0.0
15 15.09 ЮЗ 3 10 км ясно +4.4 -3.6 56 +1 +1 1020.1 930.4
18 15.09 штиль 0 10 км ясно +3.0 -3.1 64 +2 +2 1020.6 930.4
21 15.09 З 2 10 км ясно +2.3 -3.4 66 -1 -1 1020.3 929.9
00 16.09 ЮЗ 2 10 км 3/0
[Ci fib]
+5.1 -1.6 62 +3 +5 1019.4 929.9 +1.8
03 16.09 Ю 4 10 км 4/0
[Ac lent Ci]
+16.9 -1.2 29 +17 +21 1013.8 928.2
06 16.09 ЮЗ 6 10 км 8/6 600 м
[Cb calv Ac lent]
+21.3 -0.7 23 +21 +22 комфорт 1008.8 924.9
09 16.09 ЮЗ 6
{18}
10 км в посл. час ливневой дождь 8/8 600 м
[Cb calv]
+18.9 +0.5 29 +19 +19 1008.2 923.8
12 16.09 ЮЗ 3
{15}
10 км {ливн. осадки} 6/3 600 м
[Cb calv Ac cuf Ci fib]
+13.8 +3.3 49 +13 +13 1010.0 924.0 +21.9 0.0
15 16.09 С 1 10 км 9/9 1000 м
[Sc]
+11.5 +3.0 56 +12 +12 1011.7 924.8
18 16.09 С 5 н/о слаб. дождь 10/10 600 м
[Sc]
+9.7 +4.5 70 +7 +7 1015.1 927.4
21 16.09 СЗ 4
{13}
10 км в посл. час дождь 9/8 600 м
[Cu Sc Ac lent]
+4.9 +0.8 75 +1 +1 1019.6 930.0
00 17.09 СЗ 10 10 км {дождь} ясно +5.2 -3.3 54 -1 -1 1022.9 933.1 +3.2 0.4
03 17.09 СЗ 10
{16}
10 км пыльный позёмок 1/1 1000 м
[Cu hum]
+8.3 -7.0 33 +4 +4 1024.1 935.1
06 17.09 СЗ 8
{15}
10 км {метель} 3/3 1000 м
[Cu hum]
+10.4 -7.8 27 +7 +8 1023.8 935.6
09 17.09 СЗ 5
{13}
10 км ясно +10.8 -6.2 30 +9 +9 1024.1 935.9
12 17.09 СЗ 2 10 км ясно +7.2 -6.2 38 +6 +6 1025.7 936.3 +11.4
15 17.09 ЮЗ 4 10 км ясно +3.5 -5.7 51 -0 -0 1027.6 936.9
18 17.09 З 4 10 км ясно +2.9 -6.2 51 -1 -1 1028.1 937.1
21 17.09 З 5 10 км ясно +1.3 -4.4 66 -4 -4 1028.5 937.0
00 18.09 З 6 10 км ясно +5.4 -2.0 59 +1 +2 1027.7 937.6 +1.0
03 18.09 З 4 10 км 3/0
[Ac cast]
+14.7 +0.2 37 +14 +18 1023.8 936.8
06 18.09 З 4 10 км 5/0
[Ac lent Cc]
+19.0 +0.6 29 +19 +23 1019.7 934.3
09 18.09 ЮЗ 3 10 км 9/0
[Ac cast Cs]
+19.6 +2.0 31 +20 +21 1017.0 932.0
12 18.09 Ю 3 10 км 8/0
[Ac As]
+14.6 +3.7 48 +14 +14 1017.2 930.7 +20.3
15 18.09 ЮЗ 2 10 км 9/0
[Ac As]
+13.1 +3.7 53 +13 +13 1016.2 929.4
18 18.09 ЮЗ 2 10 км 9/0
[Ac As]
+12.7 +4.2 56 +12 +12 1016.0 929.1
21 18.09 СЗ 4 10 км 9/0
[Ac As]
+10.6 +2.9 59 +8 +8 1018.2 930.5
00 19.09 СЗ 2 10 км ясно +11.7 +3.5 57 +11 +12 1019.2 931.7 +7.9
03 19.09 СЗ 4 10 км ясно +17.6 +3.5 39 +17 +23 1017.8 932.1
06 19.09 СЗ 5 10 км 3/3 1000 м
[Cu hum]
+20.4 +2.7 31 +21 +24 комфорт 1015.3 930.6
09 19.09 СЗ 4 10 км 3/3 1000 м
[Cu hum Ci]
+20.7 +1.5 28 +21 +22 комфорт 1014.6 930.1
12 19.09 штиль 0 10 км ясно +14.1 +2.4 45 +14 +14 1017.3 930.6 +21.2
15 19.09 СЗ 2 н/о в посл. час дождь 10/10 1000 м
[Sc]
+13.1 +7.3 68 +12 +12 1018.3 931.3
18 19.09 СВ 2 н/о слаб. дождь 10/10 600 м
[Sc]
+10.7 +10.4 98 +9 +9 1020.1 932.3
21 19.09 С 2 10 км 5/0
[Ac lent]
+9.1 +6.5 84 +7 +7 1021.5 933.1
00 20.09 СЗ 3 10 км 8/8 1000 м
[Sc]
+10.6 +7.5 81 +9 +9 1022.8 934.7 +9.0 2

 

Местоположение метеостанции Чойбалсан (Монголия): широта 48.08 долгота 114.55 высота над уровнем моря 747 м.

В архиве по умолчанию представлена погода в Чойбалсане за последнюю неделю. Архивные данные за месяц целиком и за предыдущие месяцы, начиная с января 2011 года, Вы можете получить, выбрав интересующий диапазон дат из раскрывающегося списка и нажав кнопку "Ввод!".


*Определитесь, кто Вы:
робот инопланетянин человек

Внимание! Время в таблицах - всемирное. Для получения местного времени необходимо прибавить поправку, которая равна 8 ч.

Смотрите также архив погоды в соседних городах и на ближайших метеорологических станциях:

Погода в Матаде (Монголия) (130 км)
Погода в Дашбалбаре (Монголия) (164 км)
Погода в Шинэ-Барга-Юци (Внутренняя Монголия, Китай) (179 км)
Погода в Баруун-Урте (Монголия) (183 км)
Погода в Баян-Ову (Монголия) (185 км)
Погода в Соловьевске (Забайкальский край, Россия) (219 км)
Погода в Мангуте (Забайкальский край, Россия) (230 км)
Погода в Татаале (Монголия) (244 км)
Погода в Эрдэнэцагаане (Монголия) (250 км)
Погода в Кыре (Забайкальский край, Россия) (255 км)

Пояснения к столбцам:

Ветер - указаны скорость ветра в м/с - средняя за 10 мин, порывы в срок и между сроками (в фигурных скобках) и направление, откуда дует ветер: С - северный, СВ - северо-восточный, В - восточный, ЮВ - юго-восточный, Ю - южный, ЮЗ - юго-западный, З - западный, СЗ - северо-западный.
Видимость - горизонтальная дальность видимости в метрах или километрах. При видимости от 1 до 10 км при отсутствии осадков обычно наблюдается дымка, при ухудшении видимости до 1 км и менее - туман. В сухую погоду видимость может ухудшаться дымом, пылью или мглою.
Явления - указаны атмосферные явления, наблюдавшиеся в срок или в последний час перед сроком; фигурными скобками обозначены явления, наблюдавшиеся между сроками (за 1-3 часа до срока); квадратными скобками обозначены град или гололедные отложения с указанием их диаметра в мм.
Облачность - указаны через наклонную черту общая и нижняя облачность в баллах и высота нижней границы облаков в метрах; квадратными скобками обозначены формы облаков: Ci - перистые, Cs - перисто-слоистые, Cc - перисто-кучевые, Ac - высококучевые, As - высокослоистые, Sc - слоисто-кучевые, Ns - слоисто-дождевые, Cu - кучевые, Cb - кучево-дождевые. Подробнее классификацию облаков см. в Атласе облаков (PDF).
T - Температура воздуха - температура, измеренная на высоте 2 м над землей.
Td - Температура точки росы - температура, при понижении до которой содержащийся в воздухе водяной пар достигнет насыщения.
f - Относительная влажность воздуха - влажноcть воздуха, измеренная на высоте 2 м над землей.
Te - Эффективная температура - температура, которую ощущает одетый по сезону человек в тени. Характеристика душности погоды. При расчете учитывается влияние влажности воздуха и скорости ветра на теплоощущения человека.
Tes - Эффективная температура на солнце - температура, которую ощущает человек, с поправкой на солнечный нагрев. Характеристика знойности погоды. Зависит от высоты солнца над горизонтом, облачности и скорости ветра. Ночью, в пасмурную погоду, а также при ветре 12 м/с и более поправка равна нулю.
P - Атмосферное давление - приведенное к уровню моря атмосферное давление.
Po - Атмосферное давление - измеренное на уровне метеостанции атмосферное давление.
Tmin - Минимальная температура - минимум температуры воздуха на высоте 2 м над землей.
Tmax - Максимальная температура - максимум температуры воздуха на высоте 2 м над землей.
R - Количество осадков - Количество выпавших осадков за период времени, мм. При наведении курсора мыши на число - период времени, за который выпало указанное количество осадков.
R24 - Количество осадков - Количество выпавших осадков за 24 часа, мм.
S - Снежный покров - Высота снежного покрова, см. При наведении курсора мыши на число - состояние снежного покрова и степень покрытия местности в баллах.